HK4LRM-13 Weather Reports


time (UTC)temp
F
wind
direction
speed
knots
gust
knots
rain 1hr
in
rain 24hr
in
rain mn
in
humidity
%
barometer
mb
20260504160106 70 10 3.5 0.0 0.00 0.00 0.00 76 1014.0
20260504150701 70 330 2.6 0.0 0.00 0.00 0.00 82 1015.0
20260504141255 66 330 0.9 0.0 0.00 0.00 0.00 91 1015.0
20260504140354 66 330 1.7 0.0 0.00 0.00 0.00 91 1015.0
20260504110339 63 40 4.3 0.0 0.00 0.00 0.00 95 1016.0
20260504081218 64 40 4.3 0.0 0.00 0.00 0.00 95 1015.0
20260504080317 65 40 4.3 0.0 0.01 0.00 0.00 95 1015.0
20260504050300 68 360 3.5 0.0 0.00 0.00 0.00 90 1017.0
20260504045400 68 360 3.5 0.0 0.00 0.00 0.00 90 1017.0
20260504044458 68 360 3.5 0.0 0.00 0.00 0.00 90 1017.0
20260504043558 68 360 3.5 0.0 0.00 0.00 0.00 90 1017.0
20260504042657 68 360 3.5 0.0 0.00 0.00 0.00 90 1018.0
20260504041755 68 360 3.5 0.0 0.00 0.00 0.00 90 1018.0
20260504040854 69 360 3.5 0.0 0.00 0.00 0.00 89 1018.0
20260504035954 71 10 3.5 0.0 0.00 0.00 0.00 85 1018.0
20260504035053 71 10 3.5 0.0 0.00 0.00 0.00 85 1018.0
20260504034152 71 10 3.5 0.0 0.00 0.00 0.00 85 1018.0
20260504033248 71 10 3.5 0.0 0.00 0.00 0.00 85 1019.0
20260504032348 71 10 3.5 0.0 0.00 0.00 0.00 85 1018.0
20260504031447 71 10 3.5 0.0 0.00 0.00 0.00 85 1018.0
20260504030547 71 10 3.5 0.0 0.00 0.00 0.00 85 1018.0
20260504025640 72 350 2.6 0.0 0.00 0.00 0.00 81 1018.0
20260504024739 72 350 2.6 0.0 0.00 0.00 0.00 81 1018.0
20260504023838 72 350 2.6 0.0 0.00 0.00 0.00 81 1018.0
20260504022938 72 350 2.6 0.0 0.00 0.00 0.00 81 1018.0
20260504022038 72 350 2.6 0.0 0.00 0.00 0.00 81 1018.0
20260504021136 73 350 2.6 0.0 0.00 0.00 0.00 78 1017.0
20260504020230 73 350 4.3 0.0 0.00 0.00 0.00 78 1017.0
20260504015328 73 350 4.3 0.0 0.00 0.00 0.00 78 1017.0
20260504014426 73 350 4.3 0.0 0.00 0.00 0.00 78 1017.0
20260504013523 73 350 4.3 0.0 0.00 0.00 0.00 78 1017.0
20260504012617 73 350 4.3 0.0 0.00 0.00 0.00 78 1017.0
20260504011717 73 350 4.3 0.0 0.00 0.00 0.00 78 1016.0
20260504010815 74 350 7.0 0.0 0.00 0.00 0.00 73 1016.0
20260504005914 74 350 7.0 0.0 0.00 0.00 0.00 73 1016.0
20260504005014 74 350 7.0 0.0 0.00 0.00 0.00 73 1016.0
20260504004113 74 350 7.0 0.0 0.00 0.00 0.00 73 1015.0
20260504003213 74 350 7.0 0.0 0.00 0.00 0.00 73 1015.0
20260504002312 74 350 7.0 0.0 0.00 0.00 0.00 73 1015.0
20260504001411 74 350 7.0 0.0 0.00 0.00 0.00 73 1014.0
20260504000510 74 350 7.0 0.0 0.00 0.00 0.00 73 1014.0
20260503235609 78 340 4.3 0.0 0.00 0.00 0.00 57 1014.0
20260503234708 78 340 4.3 0.0 0.00 0.00 0.00 57 1014.0
20260503233808 78 340 4.3 0.0 0.00 0.00 0.00 57 1014.0
20260503232907 78 340 4.3 0.0 0.00 0.00 0.00 57 1014.0
20260503232006 78 340 4.3 0.0 0.00 0.00 0.00 57 1014.0
20260503231105 80 10 8.7 0.0 0.00 0.00 0.00 54 1013.0
20260503230204 80 10 8.7 0.0 0.00 0.00 0.00 54 1013.0
20260503225302 80 10 8.7 0.0 0.00 0.00 0.00 54 1013.0
20260503224401 80 10 8.7 0.0 0.00 0.00 0.00 54 1013.0
20260503223500 80 10 8.7 0.0 0.00 0.00 0.00 54 1013.0
20260503222600 80 10 8.7 0.0 0.00 0.00 0.00 54 1011.0
20260503221658 80 10 8.7 0.0 0.00 0.00 0.00 54 1011.0
20260503220758 80 10 8.7 0.0 0.00 0.00 0.00 54 1011.0
20260503215857 82 10 10.4 0.0 0.00 0.00 0.00 51 1011.0
20260503214956 82 10 10.4 0.0 0.00 0.00 0.00 51 1011.0
20260503214056 82 10 10.4 0.0 0.00 0.00 0.00 51 1011.0
20260503213155 79 10 10.4 0.0 0.00 0.00 0.00 56 1011.0
20260503212255 79 10 10.4 0.0 0.00 0.00 0.00 56 1011.0
20260503211354 79 10 9.6 0.0 0.00 0.00 0.00 56 1011.0
20260503210453 79 10 9.6 0.0 0.00 0.00 0.00 56 1011.0
20260503205552 79 10 9.6 0.0 0.00 0.00 0.00 57 1011.0
20260503204651 79 10 9.6 0.0 0.00 0.00 0.00 57 1011.0
20260503203749 79 10 9.6 0.0 0.00 0.00 0.00 57 1012.0
20260503202847 79 10 9.6 0.0 0.00 0.00 0.00 57 1012.0
20260503201946 79 10 9.6 0.0 0.00 0.00 0.00 57 1012.0
20260503201045 75 0 4.3 0.0 0.00 0.00 0.00 61 1012.0
20260503200144 76 0 5.2 0.0 0.00 0.00 0.00 60 1012.0
20260503195244 77 0 5.2 0.0 0.00 0.00 0.00 60 1011.0
20260503194343 77 0 5.2 0.0 0.00 0.00 0.00 59 1011.0
20260503193442 77 0 5.2 0.0 0.00 0.00 0.00 59 1011.0
20260503192542 77 0 5.2 0.0 0.00 0.00 0.00 59 1012.0
20260503191639 77 0 5.2 0.0 0.00 0.00 0.00 59 1011.0
20260503190739 77 140 4.3 0.0 0.00 0.00 0.00 60 1011.0
20260503185839 77 140 4.3 0.0 0.00 0.00 0.00 59 1011.0
20260503184938 77 140 4.3 0.0 0.00 0.00 0.00 59 1011.0
20260503184037 77 140 4.3 0.0 0.00 0.00 0.00 59 1012.0
20260503183135 77 140 4.3 0.0 0.00 0.00 0.00 58 1013.0
20260503182234 77 140 4.3 0.0 0.00 0.00 0.00 58 1013.0
20260503181329 77 140 4.3 0.0 0.00 0.00 0.00 58 1013.0
20260503180427 77 0 4.3 0.0 0.00 0.00 0.00 57 1013.0
20260503175526 77 0 4.3 0.0 0.00 0.00 0.00 58 1013.0
20260503174625 77 0 4.3 0.0 0.00 0.00 0.00 58 1013.0
20260503173724 77 0 4.3 0.0 0.00 0.00 0.00 59 1013.0
20260503172823 76 0 4.3 0.0 0.00 0.00 0.00 61 1015.0
20260503171923 76 0 4.3 0.0 0.00 0.00 0.00 61 1015.0
20260503171021 76 0 4.3 0.0 0.00 0.00 0.00 61 1015.0
20260503170120 75 0 4.3 0.0 0.00 0.00 0.00 65 1014.0